Location: Arbon
(43.0005°N, 0.7472°E)
Time: 21:34:08
(UTC+00:00)

Altair - Pass Details

Date: 04 December 2020
Orbit: 1501 x 1682 km, 47.2° (Epoch: 26 January)

Event Time Altitude Azimuth Distance (km) Brightness Sun altitude
Rises 16:04:07 0° 175° (S) 4,807 10.5 2.0°
Reaches altitude 10° 16:09:11 10° 154° (SSE) 3,786 9.7 1.3°
Maximum altitude 16:13:49 15° 124° (SE) 3,396 9.1 0.5°
Drops below altitude 10° 16:18:22 10° 94° (E) 3,726 9.1 -0.2°
Sets 16:23:13 0° 73° (ENE) 4,682 9.4 -0.9°
Enters shadow 16:23:15 - 73° (ENE) 4,693 9.4 -0.9°
